FLOCK 3P-86 (41985 NORAD) Tracking and Keplerian Element Data

This shows tracking and keplerian element data for the satellite.

Feedback or suggestion? Click here.




ElementValue
Catalog41985
NameFLOCK 3P-86
Epoch Orbit5525
Epoch Day45.48557992
Epoch Year2018
RAAN111.1634
Inclination97.4683
Eccentricity0.0009495
Argument of Perigee73.7014
Mean Anonmoly286.5267
Mean Motion15.23881955
Decay Rate1.355E-05
L11 41985U 17008AP 18045.48557992 .00001355 00000-0 59089-4 0 9999
L22 41985 97.4683 111.1634 0009495 73.7014 286.5267 15.23881955 55252

Live tracking and technical data element details for FLOCK 3P-86 (NORAD 41985). FLOCK 3P-86 can be tracked NOW for your location showing map with azimuth and elevation plus other details from your city location.

Track the satellite on the map from your city or location and see movement details for azimuth, elevation, latitude, longitude, range, height, and movement on the map or in text.







IsCatalogInMostPopularTable: catalog: 41985, numindb: 108
Update: records affected: 1



GetName: 41985 FLOCK 3P-86

Hit Count: updated at: Fri, 17 Aug 2018 13:20:03 GMT